GW0262 Weather Reports


Display with metric or nautical units.
time (UTC)temp
F
wind
direction
speed
MPH
gust
MPH
rain 1hr
in
rain 24hr
in
rain mn
in
humidity
%
barometer
mb
20260504081600 46 113 0.0 2.0 0.00 0.00 0.00 79 1015.8
20260504044604 45 0 0.0 0.0 0.00 0.00 0.00 78 1016.2
20260504043056 45 0 0.0 0.0 0.00 0.00 0.00 78 1016.2
20260504041554 45 0 0.0 0.0 0.00 0.00 0.00 75 1016.1
20260504040051 45 0 0.0 0.0 0.00 0.00 0.00 76 1016.0
20260504034611 46 0 0.0 0.0 0.00 0.00 0.00 74 1016.0
20260504033055 45 0 0.0 0.0 0.00 0.00 0.00 77 1015.9
20260504031550 46 0 0.0 0.0 0.00 0.00 0.00 71 1016.0
20260504030052 46 0 0.0 1.0 0.00 0.00 0.00 74 1015.9
20260504024554 45 0 0.0 0.0 0.00 0.00 0.00 69 1015.9
20260504023055 46 0 0.0 1.0 0.00 0.00 0.00 69 1015.8
20260504021556 44 0 0.0 0.0 0.00 0.00 0.00 71 1015.6
20260504020057 45 0 0.0 1.0 0.00 0.00 0.00 68 1015.5
20260504014609 45 0 0.0 0.0 0.00 0.00 0.00 67 1015.4
20260504013104 46 0 0.0 0.0 0.00 0.00 0.00 65 1015.2
20260504011600 47 0 0.0 1.0 0.00 0.00 0.00 64 1015.3
20260504004551 49 0 0.0 0.0 0.00 0.00 0.00 61 1015.1
20260504003059 51 0 0.0 1.0 0.00 0.00 0.00 57 1015.1
20260504001604 53 0 0.0 0.0 0.00 0.00 0.00 51 1015.1
20260504000056 55 0 0.0 0.0 0.00 0.00 0.00 46 1015.0
20260503234551 58 0 0.0 2.0 0.00 0.00 0.00 41 1014.8
20260503233054 59 0 0.0 2.0 0.00 0.00 0.00 39 1014.7
20260503231550 60 117 0.0 3.0 0.00 0.00 0.00 37 1014.7
20260503230052 61 302 0.0 4.0 0.00 0.00 0.00 36 1014.7
20260503224550 62 109 0.0 6.0 0.00 0.00 0.00 34 1014.6
20260503223049 62 115 0.0 4.0 0.00 0.00 0.00 34 1014.7
20260503221554 63 121 1.0 7.0 0.00 0.00 0.00 32 1014.8
20260503220054 64 238 2.0 7.0 0.00 0.00 0.00 31 1014.8
20260503214550 64 105 1.0 4.0 0.00 0.00 0.00 32 1014.9
20260503213056 64 162 2.0 8.0 0.00 0.00 0.00 32 1014.8
20260503211554 64 125 3.0 7.0 0.00 0.00 0.00 29 1014.8
20260503204554 64 316 2.0 9.0 0.00 0.00 0.00 29 1015.1
20260503203102 64 27 2.0 8.0 0.00 0.00 0.00 31 1015.3
20260503201553 64 316 2.0 7.0 0.00 0.00 0.00 29 1015.4
20260503200058 65 283 3.0 8.0 0.00 0.00 0.00 28 1015.6
20260503194555 63 291 3.0 13.0 0.00 0.00 0.00 29 1015.7
20260503193052 63 280 2.0 15.0 0.00 0.00 0.00 31 1016.2
20260503191552 62 213 2.0 10.0 0.00 0.00 0.00 31 1016.3
20260503190055 62 318 4.0 11.0 0.00 0.00 0.00 30 1016.6
20260503184608 61 236 4.0 10.0 0.00 0.00 0.00 30 1016.9
20260503183059 62 205 3.0 8.0 0.00 0.00 0.00 32 1017.2
20260503181608 61 298 2.0 10.0 0.00 0.00 0.00 31 1017.3
20260503180056 60 310 1.0 4.0 0.00 0.00 0.00 35 1017.4
20260503174549 61 342 3.0 10.0 0.00 0.00 0.00 30 1017.7
20260503173101 61 321 2.0 11.0 0.00 0.00 0.00 35 1017.7
20260503171555 59 5 4.0 10.0 0.00 0.00 0.00 34 1017.6